CW3151 Weather Reports


Display with metric or nautical units.
time (UTC)temp
F
wind
direction
speed
MPH
gust
MPH
rain 1hr
in
rain 24hr
in
rain mn
in
humidity
%
barometer
mb
20260503200316 62 136 0.0 2.0 0.00 0.00 0.00 44 1017.9
20260503194815 62 186 0.0 2.0 0.00 0.00 0.00 44 1018.0
20260503193339 61 109 1.0 1.0 0.00 0.00 0.00 44 1018.3
20260503191816 61 139 1.0 3.0 0.00 0.00 0.00 44 1018.5
20260503190335 60 109 0.0 1.0 0.00 0.00 0.00 45 1018.8
20260503184817 60 109 1.0 2.0 0.00 0.00 0.00 45 1018.9
20260503183316 60 109 0.0 1.0 0.00 0.00 0.00 42 1019.0
20260503181819 61 109 0.0 2.0 0.00 0.00 0.00 44 1019.2
20260503180339 61 108 1.0 3.0 0.00 0.00 0.00 42 1019.2
20260503174821 61 83 0.0 2.0 0.00 0.00 0.00 42 1019.3
20260503173319 61 82 0.0 1.0 0.00 0.00 0.00 39 1019.4
20260503171823 60 86 0.0 1.0 0.00 0.00 0.00 42 1019.8
20260503170322 59 98 0.0 3.0 0.00 0.00 0.00 43 1020.0
20260503150323 52 85 0.0 2.0 0.00 0.00 0.00 55 1021.0
20260503130323 47 87 0.0 1.0 0.00 0.00 0.00 67 1020.7
20260503110348 39 26 0.0 0.0 0.00 0.00 0.00 85 1019.9
20260503090325 38 26 0.0 0.0 0.00 0.00 0.00 85 1018.6
20260503080348 39 26 0.0 0.0 0.00 0.00 0.00 82 1018.0
20260503071847 40 26 0.0 0.0 0.00 0.00 0.00 79 1017.7
20260503070329 41 26 0.0 0.0 0.00 0.00 0.00 78 1017.5
20260503060312 41 26 0.0 0.0 0.00 0.00 0.00 77 1017.4
20260503054830 41 26 0.0 0.0 0.00 0.00 0.00 77 1017.4
20260503053313 41 26 0.0 0.0 0.00 0.00 0.00 75 1017.4
20260503051812 42 26 0.0 0.0 0.00 0.00 0.00 73 1017.6
20260503050335 42 26 0.0 0.0 0.00 0.00 0.00 72 1017.6
20260503044813 43 26 0.0 0.0 0.00 0.00 0.00 71 1017.5
20260503043315 44 26 0.0 0.0 0.00 0.00 0.00 69 1017.4
20260503041814 45 26 0.0 0.0 0.00 0.00 0.00 68 1017.2
20260503040313 45 26 0.0 0.0 0.00 0.00 0.00 67 1017.1
20260503034836 45 26 0.0 1.0 0.00 0.00 0.00 67 1017.0
20260503033336 46 26 0.0 0.0 0.00 0.00 0.00 66 1016.9
20260503031817 46 26 0.0 1.0 0.00 0.00 0.00 64 1016.7
20260503030336 47 26 0.0 1.0 0.00 0.00 0.00 64 1016.6
20260503024818 47 26 0.0 1.0 0.00 0.00 0.00 62 1016.6
20260503023316 48 26 0.0 1.0 0.00 0.00 0.00 60 1016.4
20260503021815 48 26 0.0 1.0 0.00 0.00 0.00 62 1016.3
20260503020339 48 26 0.0 2.0 0.00 0.00 0.00 59 1016.3
20260503014816 49 304 0.0 0.0 0.00 0.00 0.00 59 1016.1
20260503013319 50 304 0.0 0.0 0.00 0.00 0.00 57 1015.8
20260503011818 50 304 0.0 0.0 0.00 0.00 0.00 57 1015.6
20260503010321 51 304 0.0 2.0 0.00 0.00 0.00 52 1015.4
20260503004819 52 304 1.0 2.0 0.00 0.00 0.00 49 1015.1
20260503003322 52 304 0.0 2.0 0.00 0.00 0.00 49 1014.9
20260503001840 53 304 1.0 2.0 0.00 0.00 0.00 49 1014.7
20260503000319 54 304 0.0 2.0 0.00 0.00 0.00 47 1014.3
20260502234821 54 334 0.0 2.0 0.00 0.00 0.00 46 1014.1
20260502233316 54 334 1.0 2.0 0.00 0.00 0.00 46 1014.1
20260502231818 54 327 1.0 2.0 0.00 0.00 0.00 45 1013.8
20260502230318 55 25 0.0 2.0 0.00 0.00 0.00 45 1013.6
20260502224821 55 113 1.0 3.0 0.00 0.00 0.00 44 1013.6
20260502223319 56 101 1.0 3.0 0.00 0.00 0.00 42 1013.5
20260502221841 57 107 1.0 2.0 0.00 0.00 0.00 44 1013.4
20260502220340 57 68 1.0 3.0 0.00 0.00 0.00 41 1013.3
20260502214817 58 258 1.0 3.0 0.00 0.00 0.00 40 1013.1
20260502213322 58 116 1.0 3.0 0.00 0.00 0.00 41 1012.9
20260502211819 58 108 1.0 4.0 0.00 0.00 0.00 42 1012.8
20260502210321 58 99 1.0 4.0 0.00 0.00 0.00 40 1012.6
20260502204819 58 72 1.0 2.0 0.00 0.00 0.00 41 1012.6
20260502203323 58 98 1.0 2.0 0.00 0.00 0.00 40 1012.8
20260502201821 58 107 1.0 3.0 0.00 0.00 0.00 43 1012.7